Adamsville, PA

3:04 AM EDT on July 29, 2016 (GMT -0400)
Port Meadville

Weather History for KGKJ - August, 2013

Change the Weather History Date:

Wednesday, August 28, 2013

  Actual Average Record
Temperature  
Mean Temperature 72 °F -  
Max Temperature 77 °F 80 °F 94 °F (1948)
Min Temperature 68 °F 56 °F 40 °F (1982)
Cooling Degree Days 6    
Growing Degree Days 22 (Base 50)    
Moisture  
Dew Point 68 °F    
Average Humidity 92    
Maximum Humidity 100    
Minimum Humidity 83    
Precipitation  
Precipitation 2.11 in - - ()
Sea Level Pressure  
Sea Level Pressure 29.90 in    
Wind  
Wind Speed 5 mph (East)    
Max Wind Speed 10 mph    
Max Gust Speed -    
Visibility 4 miles    
Events Fog , Rain    
Averages and records for this station are not official NWS values.
T = Trace of Precipitation, MM = Missing Value Source: NWS Daily Summary

Daily Weather History Graph

Daily Weather History Graph

Search for Another Location

Airport or City:

Trip Planner

Search our weather history database for the weather conditions in past years. The results will help you decide how hot, cold, wet, or windy it might be!

Date:

Astronomy

Aug. 28, 2013 Rise Set
Actual Time 6:43 AM EDT 8:00 PM EDT
Civil Twilight 6:14 AM EDT 8:28 PM EDT
Nautical Twilight 5:39 AM EDT 9:03 PM EDT
Astronomical Twilight 5:03 AM EDT 9:39 PM EDT
Moon No Moon Rise 2:38 PM EDT (8/28)
Length of Visible Light 14h 14m
Length of Day
13h 17m
Waning Gibbous, 47% of the Moon is Illuminated
Aug 28
Waning Gibbous
Sep 5
New
Sep 12
First Quarter
Sep 19
Full
Sep 26
Last Quarter

Hourly Weather History & Observations

Time (EDT) Temp. Dew Point Humidity Pressure Visibility Wind Dir Wind Speed Gust Speed Precip Events Conditions
12:01 AM 71.6 °F 69.8 °F 94% 29.97 in 1.8 mi SW 5.8 mph - 0.06 in Rain Heavy Rain
12:12 AM 69.8 °F 69.8 °F 100% 29.96 in 2.5 mi SSW 6.9 mph - 0.11 in Rain Heavy Rain
12:25 AM 69.8 °F 69.8 °F 100% 29.95 in 4.0 mi South 6.9 mph - 0.14 in Rain Light Rain
12:51 AM 69.8 °F 69.8 °F 100% 29.95 in 4.0 mi South 6.9 mph - 0.15 in Rain Light Rain
12:53 AM 70.0 °F 69.1 °F 97% 29.92 in 4.0 mi South 4.6 mph - 0.15 in Rain Rain
12:59 AM 69.8 °F 69.8 °F 100% 29.95 in 4.0 mi South 4.6 mph - 0.00 in Rain Light Rain
1:06 AM 69.8 °F 69.8 °F 100% 29.94 in 1.8 mi South 5.8 mph - 0.00 in Rain Light Rain
1:23 AM 71.6 °F 69.8 °F 94% 29.94 in 3.0 mi Variable 3.5 mph - 0.00 in   Overcast
1:53 AM 71.1 °F 69.1 °F 93% 29.91 in 4.0 mi Variable 3.5 mph - 0.00 in Rain Light Rain
2:25 AM 71.6 °F 69.8 °F 94% 29.95 in 3.0 mi WSW 6.9 mph - 0.01 in Rain Light Rain
2:32 AM 71.6 °F 69.8 °F 94% 29.95 in 2.0 mi SW 6.9 mph - 0.04 in Rain Light Rain
2:39 AM 71.6 °F 69.8 °F 94% 29.94 in 1.2 mi SSW 6.9 mph - 0.13 in Rain Heavy Rain
2:47 AM 69.8 °F 69.8 °F 100% 29.93 in 3.0 mi South 3.5 mph - 0.15 in Rain Light Rain
2:53 AM 70.0 °F 68.0 °F 93% 29.90 in 6.0 mi SSW 3.5 mph - 0.16 in Rain Rain
3:47 AM 69.8 °F 68.0 °F 94% 29.91 in 1.8 mi South 4.6 mph - 0.02 in   Mostly Cloudy
3:53 AM 69.1 °F 68.0 °F 96% 29.88 in 2.0 mi South 4.6 mph - 0.02 in   Mostly Cloudy
4:01 AM 69.8 °F 68.0 °F 94% 29.90 in 8.0 mi South 6.9 mph - N/A   Mostly Cloudy
4:53 AM 69.1 °F 68.0 °F 96% 29.89 in 6.0 mi SW 3.5 mph - 0.01 in Rain Light Rain
5:43 AM 69.8 °F 68.0 °F 94% 29.92 in 4.0 mi SSW 3.5 mph - 0.03 in Rain Light Rain
5:47 AM 69.8 °F 68.0 °F 94% 29.92 in 3.0 mi Calm Calm - 0.05 in Rain Rain
5:53 AM 70.0 °F 68.0 °F 93% 29.88 in 2.0 mi South 4.6 mph - 0.08 in Rain Heavy Rain
6:09 AM 69.8 °F 69.8 °F 100% 29.91 in 4.0 mi Variable 3.5 mph - 0.03 in Rain Light Rain
6:43 AM 69.8 °F 68.0 °F 94% 29.91 in 2.5 mi South 4.6 mph - 0.08 in Rain Rain
6:53 AM 70.0 °F 68.0 °F 93% 29.87 in 2.5 mi Variable 3.5 mph - 0.12 in Rain Heavy Rain
7:02 AM 69.8 °F 68.0 °F 94% 29.90 in 5.0 mi Calm Calm - 0.01 in Rain Light Rain
7:53 AM 69.1 °F 68.0 °F 96% 29.87 in 5.0 mi Calm Calm - 0.03 in Rain Light Rain
8:09 AM 69.8 °F 68.0 °F 94% 29.90 in 1.8 mi Calm Calm - 0.08 in Rain Heavy Rain
8:16 AM 69.8 °F 68.0 °F 94% 29.90 in 0.8 mi Calm Calm - 0.25 in Rain Heavy Rain
8:32 AM 69.8 °F 68.0 °F 94% 29.89 in 1.8 mi Calm Calm - 0.48 in Rain Heavy Rain
8:38 AM 69.8 °F 68.0 °F 94% 29.88 in 3.0 mi SSE 4.6 mph - 0.49 in Rain Rain
8:53 AM 69.1 °F 68.0 °F 96% 29.86 in 2.0 mi South 5.8 mph - 0.57 in Rain Heavy Rain
9:30 AM 69.8 °F 66.2 °F 88% 29.88 in 4.0 mi East 4.6 mph - 0.10 in Rain Rain
9:53 AM 69.1 °F 66.9 °F 93% 29.86 in 5.0 mi Calm Calm - 0.14 in Rain Light Rain
10:12 AM 69.8 °F 66.2 °F 88% 29.87 in 1.8 mi Variable 3.5 mph - 0.04 in Rain Heavy Rain
10:22 AM 69.8 °F 66.2 °F 88% 29.87 in 0.5 mi Variable 3.5 mph - 0.23 in Fog , Rain Heavy Rain
10:29 AM 69.8 °F 66.2 °F 88% 29.87 in 1.0 mi Calm Calm - 0.25 in Rain Rain
10:42 AM 69.8 °F 66.2 °F 88% 29.87 in 0.8 mi Variable 4.6 mph - 0.33 in Rain Rain
10:49 AM 69.8 °F 66.2 °F 88% 29.87 in 1.0 mi ENE 4.6 mph - 0.35 in Rain Rain
10:53 AM 69.1 °F 66.9 °F 93% 29.85 in 1.0 mi East 6.9 mph - 0.39 in Rain Rain
11:00 AM 68.0 °F 66.2 °F 94% 29.87 in 0.8 mi East 10.4 mph - 0.02 in Rain Rain
11:16 AM 68.0 °F 66.2 °F 94% 29.87 in 1.0 mi Calm Calm - 0.08 in Rain Rain
11:24 AM 69.8 °F 66.2 °F 88% 29.87 in 2.0 mi ENE 4.6 mph - 0.08 in Rain Light Rain
11:31 AM 68.0 °F 66.2 °F 94% 29.88 in 5.0 mi ENE 6.9 mph - 0.08 in Rain Light Rain
11:41 AM 69.8 °F 66.2 °F 88% 29.88 in 1.8 mi ENE 6.9 mph - 0.10 in Rain Light Rain
11:53 AM 69.1 °F 66.9 °F 93% 29.85 in 1.5 mi East 6.9 mph - 0.12 in Rain Rain
12:21 PM 68.0 °F 66.2 °F 94% 29.87 in 0.8 mi Calm Calm - 0.21 in Rain Heavy Rain
12:23 PM 68.0 °F 66.2 °F 94% 29.87 in 1.0 mi Calm Calm - 0.22 in Rain Heavy Rain
12:42 PM 69.8 °F 66.2 °F 88% 29.87 in 1.8 mi Variable 3.5 mph - 0.29 in Rain Rain
12:46 PM 69.8 °F 66.2 °F 88% 29.88 in 3.0 mi Calm Calm - 0.30 in Rain Light Rain
12:53 PM 69.1 °F 66.9 °F 93% 29.86 in 5.0 mi Variable 3.5 mph - 0.30 in Rain Light Rain
1:02 PM 69.8 °F 68.0 °F 94% 29.88 in 7.0 mi East 3.5 mph - 0.00 in Rain Light Rain
1:33 PM 71.6 °F 69.8 °F 94% 29.88 in 7.0 mi Calm Calm - 0.02 in Rain Light Rain
1:41 PM 71.6 °F 69.8 °F 94% 29.88 in 10.0 mi Calm Calm - 0.02 in Rain Light Rain
1:53 PM 72.0 °F 69.1 °F 91% 29.86 in 10.0 mi ENE 3.5 mph - 0.02 in Rain Light Rain
2:53 PM 73.0 °F 70.0 °F 90% 29.86 in 10.0 mi ENE 4.6 mph - 0.00 in Rain Light Rain
3:02 PM 73.4 °F 69.8 °F 88% 29.89 in 10.0 mi ENE 6.9 mph - 0.00 in   Overcast
3:26 PM 73.4 °F 69.8 °F 88% 29.90 in 10.0 mi ENE 6.9 mph - 0.00 in   Overcast
3:38 PM 73.4 °F 69.8 °F 88% 29.90 in 10.0 mi East 4.6 mph - 0.00 in   Overcast
3:53 PM 73.9 °F 70.0 °F 87% 29.87 in 10.0 mi Calm Calm - 0.00 in   Overcast
4:28 PM 75.2 °F 69.8 °F 83% 29.90 in 10.0 mi North 3.5 mph - N/A   Overcast
4:39 PM 75.2 °F 69.8 °F 83% 29.90 in 10.0 mi Calm Calm - N/A   Overcast
4:53 PM 75.0 °F 70.0 °F 84% 29.88 in 10.0 mi Calm Calm - N/A   Overcast
5:11 PM 75.2 °F 71.6 °F 89% 29.90 in 10.0 mi Variable 4.6 mph - N/A   Overcast
5:28 PM 75.2 °F 71.6 °F 89% 29.91 in 10.0 mi North 5.8 mph - N/A   Overcast
5:38 PM 75.2 °F 71.6 °F 89% 29.91 in 10.0 mi North 8.1 mph - 0.00 in Rain Light Rain
5:53 PM 75.0 °F 71.1 °F 87% 29.88 in 10.0 mi North 5.8 mph - 0.00 in   Mostly Cloudy
6:53 PM 75.0 °F 70.0 °F 84% 29.88 in 10.0 mi North 8.1 mph - N/A   Scattered Clouds
7:04 PM 73.4 °F 69.8 °F 88% 29.92 in 10.0 mi North 8.1 mph - N/A   Mostly Cloudy
7:53 PM 72.0 °F 69.1 °F 91% 29.91 in 10.0 mi North 5.8 mph - N/A   Scattered Clouds
8:53 PM 70.0 °F 68.0 °F 93% 29.93 in 7.0 mi NNE 5.8 mph - N/A   Clear
9:53 PM 70.0 °F 68.0 °F 93% 29.96 in 4.0 mi NNE 5.8 mph - N/A   Clear
10:49 PM 69.8 °F 68.0 °F 94% 29.99 in 2.5 mi North 6.9 mph - N/A   Partly Cloudy
10:53 PM 69.1 °F 68.0 °F 96% 29.97 in 2.5 mi NNE 6.9 mph - N/A   Scattered Clouds
11:17 PM 69.8 °F 68.0 °F 94% 29.99 in 2.5 mi North 6.9 mph - N/A   Mostly Cloudy
11:41 PM 69.8 °F 68.0 °F 94% 29.99 in 1.5 mi North 4.6 mph - N/A   Overcast
11:53 PM 69.1 °F 68.0 °F 96% 29.97 in 1.5 mi North 4.6 mph - N/A   Overcast